www.pogodaiklimat.ru

Погода и климат >> Архив погоды >> Канада >> London


ПОГОДА в London

  • Прогноз погоды в London
  • Монитор погоды в London
  • Климат города

АРХИВ ПОГОДЫ в London

Время (UTC), дата Ветер
(напр.,м/с)
 
Видим.   Явления Облачность Т
(С)
Тd
(С)
f
(%)
Тe
(С)
Тes
(С)
Комфортность P
(гПа)
Po
(гПа)
Тmin
(С)
Tmax
(С)
R
(мм)
R24
(мм)
S
(см)
00 14.09 В 4 24 км 6/6 600 м
[]
+21.4 +19.9 91 +26 +26 душно 1021.6 988.6 +15.4 +25.1
03 14.09 СВ 3 24 км 8/8 1000 м
[]
+19.0 +17.0 88 +21 +21 комфорт 1021.8 988.8
06 14.09 В 3 24 км ясно +17.9 +17.4 97 +18 +18 1021.3 988.4 +15.4 +25.1
09 14.09 В 3 24 км ясно +17.5 +17.3 99 +17 +17 1021.2 988.3
12 14.09 В 3 16 км 8/8 1000 м
[]
+18.9 +18.8 99 +21 +21 комфорт 1022.0 989.0 +17.3 +25.1
15 14.09 Ю 4 24 км 8/8 300 м
[]
+25.1 +21.3 79 +32 +33 очень
душно
1021.7 988.8
18 14.09 ЮВ 2 24 км 9/9 600 м
[]
+26.8 +21.2 71 +34 +35 очень
душно
1020.7 987.9 +17.3 +27.4
21 14.09 ЮВ 4 24 км 4/4 600 м
[]
+27.6 +21.0 67 +35 +36 очень
душно
1020.1 987.3
00 15.09 С 1 24 км ясно +21.1 +20.0 93 +26 +26 душно 1020.6 987.6 +17.3 +28.2
03 15.09 С 2 19 км 1/1 1000 м
[]
+20.0 +20.0 100 +24 +24 комфорт 1021.4 988.6
06 15.09 С 1 3200 м 1/1 600 м
[]
+17.6 +17.6 100 +19 +19 1021.1 988.3 +16.9 +28.2
09 15.09 В 2 3200 м 1/1 600 м
[]
+16.9 +16.9 100 +17 +17 1021.5 988.6
12 15.09 С 1 8000 м 3/3 600 м
[]
+18.5 +18.5 100 +20 +21 1022.5 989.5 +15.6 +28.2
15 15.09 В 1 24 км 3/3 600 м
[]
+25.6 +20.7 74 +32 +38 очень
душно
1022.9 990.0
18 15.09 С 2 24 км 8/8 1000 м
[]
+28.2 +19.8 60 +34 +37 очень
душно
1022.3 989.5 +15.6 +28.2
21 15.09 Ю 4 24 км 5/5 1000 м
[]
+28.1 +20.8 65 +35 +37 очень
душно
1021.2 988.4
00 16.09 З 2 24 км 1/1 1000 м
[]
+21.8 +20.1 90 +27 +27 душно 1021.6 988.6 +15.6 +29.5
03 16.09 З 2 19 км ясно +18.9 +18.7 99 +21 +21 комфорт 1022.2 989.3
06 16.09 В 1 8000 м ясно +17.4 +17.4 100 +18 +18 1022.1 989.3 +15.6 +29.5
09 16.09 В 2 2400 м ясно +16.6 +16.6 100 +17 +17 1022.5 989.6
12 16.09 В 2 3200 м ясно +18.1 +18.1 100 +19 +19 1023.4 990.4 +16.3 +29.5
15 16.09 В 4 24 км 3/3 600 м
[]
+25.6 +21.6 79 +33 +36 очень
душно
1023.1 990.2
18 16.09 ЮВ 3 24 км 6/6 1000 м
[]
+27.7 +20.6 65 +34 +38 очень
душно
1021.6 988.8 +16.3 +28.0
21 16.09 ЮВ 4 24 км 5/5 1000 м
[]
+28.1 +20.5 63 +35 +36 очень
душно
1019.6 986.8
00 17.09 ЮВ 2 24 км 1/1 1000 м
[]
+22.9 +18.4 76 +29 +29 очень
душно
1019.5 986.6 +16.3 +28.8
03 17.09 В 2 24 км ясно +19.6 +17.9 90 +23 +23 комфорт 1019.5 986.7
09 17.09 В 2 24 км ясно +17.4 +17.4 100 +18 +18 1017.1 984.4
12 17.09 В 2 24 км 5/5 1000 м
[]
+17.9 +17.9 100 +19 +19 1016.9 984.1
15 17.09 Ю 4 24 км 6/6 600 м
[]
+24.1 +19.2 74 +29 +31 душно 1015.9 983.2
18 17.09 ЮВ 4 24 км 8/8 600 м
[]
+25.2 +19.2 69 +30 +32 душно 1014.5 981.8 +25.5
21 17.09 Ю 5 24 км 9/9 600 м
[]
+25.7 +19.3 68 +31 +31 очень
душно
1012.4 979.8
00 18.09 Ю 3 24 км 4/4 600 м
[]
+22.1 +18.9 82 +27 +27 душно 1012.2 979.5 +16.8 +26.6
03 18.09 С 1 24 км ясно +17.8 +17.8 100 +19 +19 1012.3 979.7
06 18.09 З 2 24 км 3/3 1500 м
[]
+17.2 +17.2 100 +18 +18 1012.2 979.6 +16.3 +26.6
09 18.09 штиль 0 6000 м ясно +16.8 +16.8 100 +17 +17 1011.6 979.0
12 18.09 СЗ 2 400 м 3/3 100 м
[]
+18.6 +18.6 100 +20 +21 1012.5 979.8 +14.8 +26.6
15 18.09 СЗ 3 4000 м 10/10 100 м
[]
+19.5 +19.5 100 +22 +22 комфорт 1013.1 980.3
18 18.09 СЗ 4 19 км 4/4 300 м
[]
+24.1 +18.7 72 +29 +34 душно 1012.5 979.8 +14.8 +24.4
21 18.09 СЗ 5 24 км ясно +22.9 +17.9 73 +28 +30 душно 1012.7 980.0
00 19.09 СЗ 4 24 км 1/0
[]
+18.2 +15.4 84 +18 +18 1013.2 980.4 +14.8 +24.7
03 19.09 С 2 24 км 9/0
[]
+15.6 +13.9 90 +15 +15 1014.2 981.3
06 19.09 С 3 24 км 10/0
[]
+14.8 +13.2 90 +14 +14 1014.6 981.8 +14.8 +24.7
09 19.09 С 3 24 км 5/0
[]
+13.6 +13.1 97 +13 +13 1015.4 982.5
12 19.09 С 4 24 км 3/0
[]
+13.2 +12.6 96 +12 +12 1018.3 985.2 +12.5 +24.7
15 19.09 СЗ 2 24 км 4/4 600 м
[]
+17.4 +12.9 75 +18 +23 1019.0 985.9
18 19.09 СЗ 2 24 км 1/0
[]
+21.2 +12.7 58 +23 +35 комфорт 1018.4 985.4 +12.5 +21.3
21 19.09 С 1 24 км 8/0
[]
+22.8 +12.6 53 +26 +28 жарко 1017.5 984.5
00 20.09 СЗ 3 24 км 8/0
[]
+17.6 +13.7 78 +18 +18 1018.9 985.7 +12.5 +22.9
03 20.09 ЮВ 2 24 км 6/0
[]
+14.2 +12.4 89 +14 +14 1019.4 986.2
06 20.09 В 3 24 км 3/0
[]
+14.1 +12.9 92 +13 +13 1019.0 986.0 +12.5 +22.9
09 20.09 СВ 3 24 км 8/8 600 м
[]
+13.3 +11.9 91 +12 +12 1020.1 987.1
12 20.09 СВ 3 24 км 9/0
[]
+14.2 +13.1 93 +13 +13 1020.7 987.5 +12.6 +22.9
15 20.09 В 6 24 км 10/0
[]
+18.1 +13.8 76 +18 +19 1021.5 988.3
18 20.09 В 5 19 км 10/0
[]
+19.7 +15.5 77 +22 +25 комфорт 1020.1 987.0 +12.6 +19.7
21 20.09 ЮВ 6 24 км 10/0
[]
+20.2 +16.7 80 +23 +24 комфорт 1018.0 984.9

 

Местоположение метеостанции London (Канада): широта 43.03 долгота -81.15 высота над уровнем моря 278 м.

В архиве по умолчанию представлена погода в London за последнюю неделю. Архивные данные за месяц целиком и за предыдущие месяцы, начиная с января 2011 года, Вы можете получить, выбрав интересующий диапазон дат из раскрывающегося списка и нажав кнопку "Ввод!".


*Определитесь, кто Вы:
робот инопланетянин человек

Внимание! Время в таблицах - всемирное. Для получения местного времени необходимо прибавить поправку, которая в London равна -5 ч.

Смотрите также архив погоды в соседних городах и на ближайших метеорологических станциях:

Погода в London Cs (Канада) (1 км)
Погода в Delhi (Канада) (52 км)
Погода в Brantford Airport (Канада) (68 км)
Погода в Simcoe (Канада) (74 км)
Погода в Waterloo Wellington (Канада) (78 км)
Погода в Ridgetown Rcs (Канада) (88 км)
Погода в Elora Rcs (Канада) (91 км)
Погода в Sarnia Climate (Канада) (94 км)
Погода в Goderich (Канада) (94 км)
Погода в Guelph Turfgrass (Канада) (95 км)

Пояснения к столбцам:

Ветер - указаны скорость ветра в м/с - средняя за 10 мин, порывы в срок и между сроками (в фигурных скобках) и направление, откуда дует ветер: С - северный, СВ - северо-восточный, В - восточный, ЮВ - юго-восточный, Ю - южный, ЮЗ - юго-западный, З - западный, СЗ - северо-западный.
Видимость - горизонтальная дальность видимости в метрах или километрах. При видимости от 1 до 10 км при отсутствии осадков обычно наблюдается дымка, при ухудшении видимости до 1 км и менее - туман. В сухую погоду видимость может ухудшаться дымом, пылью или мглою.
Явления - указаны атмосферные явления, наблюдавшиеся в срок или в последний час перед сроком; фигурными скобками обозначены явления, наблюдавшиеся между сроками (за 1-3 часа до срока); квадратными скобками обозначены град или гололедные отложения с указанием их диаметра в мм.
Облачность - указаны через наклонную черту общая и нижняя облачность в баллах и высота нижней границы облаков в метрах; квадратными скобками обозначены формы облаков: Ci - перистые, Cs - перисто-слоистые, Cc - перисто-кучевые, Ac - высококучевые, As - высокослоистые, Sc - слоисто-кучевые, Ns - слоисто-дождевые, Cu - кучевые, Cb - кучево-дождевые. Подробнее классификацию облаков см. в Атласе облаков (PDF).
T - Температура воздуха - температура, измеренная на высоте 2 м над землей.
Td - Температура точки росы - температура, при понижении до которой содержащийся в воздухе водяной пар достигнет насыщения.
f - Относительная влажность воздуха - влажноcть воздуха, измеренная на высоте 2 м над землей.
Te - Эффективная температура - температура, которую ощущает одетый по сезону человек в тени. Характеристика душности погоды. При расчете учитывается влияние влажности воздуха и скорости ветра на теплоощущения человека.
Tes - Эффективная температура на солнце - температура, которую ощущает человек, с поправкой на солнечный нагрев. Характеристика знойности погоды. Зависит от высоты солнца над горизонтом, облачности и скорости ветра. Ночью, в пасмурную погоду, а также при ветре 12 м/с и более поправка равна нулю.
P - Атмосферное давление - приведенное к уровню моря атмосферное давление.
Po - Атмосферное давление - измеренное на уровне метеостанции атмосферное давление.
Tmin - Минимальная температура - минимум температуры воздуха на высоте 2 м над землей.
Tmax - Максимальная температура - максимум температуры воздуха на высоте 2 м над землей.
R - Количество осадков - Количество выпавших осадков за период времени, мм. При наведении курсора мыши на число - период времени, за который выпало указанное количество осадков.
R24 - Количество осадков - Количество выпавших осадков за 24 часа, мм.
S - Снежный покров - Высота снежного покрова, см. При наведении курсора мыши на число - состояние снежного покрова и степень покрытия местности в баллах.